This is the latest recevied weather packets stored in our database for station/object DM4XI-13. If no packets are shown the sender has not sent any weather packets the latest 10 day(s).
| Time | Temp. | Humidity | Pressure | Rain* | Wind** | Luminosity | Snow |
|---|---|---|---|---|---|---|---|
| 1778121975 | 9.44° C | 94% | 1007.5 hPa | 0 mm | 0.89 m/s, 196° | 0 W/m² | - |
| 1778121913 | 9.44° C | 94% | 1007.5 hPa | 0 mm | 0 m/s | 0 W/m² | - |
| 1778121853 | 9.44° C | 94% | 1007.4 hPa | 0 mm | 0 m/s | 0 W/m² | - |
| 1778121791 | 9.44° C | 94% | 1007.6 hPa | 0 mm | 0.45 m/s, 203° | 0 W/m² | - |
| 1778121731 | 9.44° C | 94% | 1007.3 hPa | 0 mm | 0.45 m/s, 191° | 0 W/m² | - |
| 1778121670 | 9.44° C | 94% | 1007.6 hPa | 0 mm | 0.45 m/s, 197° | 0 W/m² | - |
| 1778121609 | 9.44° C | 94% | 1007.5 hPa | 0 mm | 0.45 m/s, 182° | 0 W/m² | - |
| 1778121547 | 9.44° C | 94% | 1007.4 hPa | 0 mm | 0 m/s | 0 W/m² | - |
| 1778121487 | 9.44° C | 94% | 1007.3 hPa | 0 mm | 0.89 m/s, 195° | 0 W/m² | - |
| 1778121425 | 9.44° C | 94% | 1007.5 hPa | 0 mm | 0.45 m/s, 177° | 0 W/m² | - |
| 1778121364 | 9.44° C | 94% | 1007.4 hPa | 0 mm | 0.45 m/s, 184° | 0 W/m² | - |
| 1778121304 | 9.44° C | 94% | 1007.6 hPa | 0 mm | 0.45 m/s, 182° | 0 W/m² | - |
| 1778121243 | 9.44° C | 94% | 1007.5 hPa | 0 mm | 0.45 m/s, 218° | 0 W/m² | - |
| 1778121182 | 9.44° C | 94% | 1007.4 hPa | 0 mm | 0.45 m/s, 181° | 0 W/m² | - |
| 1778121120 | 9.44° C | 94% | 1007.2 hPa | 0 mm | 0.89 m/s, 179° | 0 W/m² | - |
| 1778121060 | 9.44° C | 94% | 1007.5 hPa | 0 mm | 0.89 m/s, 175° | 0 W/m² | - |
| 1778120999 | 9.44° C | 94% | 1007.5 hPa | 0 mm | 0.45 m/s, 186° | 0 W/m² | - |
| 1778120938 | 9.44° C | 94% | 1007.5 hPa | 0 mm | 0.89 m/s, 201° | 0 W/m² | - |
| 1778120877 | 9.44° C | 94% | 1007.2 hPa | 0 mm | 1.34 m/s, 185° | 0 W/m² | - |
| 1778120815 | 9.44° C | 94% | 1007.5 hPa | 0 mm | 0.89 m/s, 199° | 0 W/m² | - |
| 1778120754 | 9.44° C | 94% | 1007.2 hPa | 0 mm | 0.45 m/s, 185° | 0 W/m² | - |
| 1778120693 | 9.44° C | 94% | 1007.5 hPa | 0 mm | 0.89 m/s, 186° | 0 W/m² | - |
| 1778120632 | 9.44° C | 94% | 1007.5 hPa | 0 mm | 0 m/s | 0 W/m² | - |
| 1778120571 | 9.44° C | 94% | 1007.4 hPa | 0 mm | 0.45 m/s, 194° | 0 W/m² | - |
| 1778120511 | 9.44° C | 94% | 1007.5 hPa | 0 mm | 0.89 m/s, 191° | 0 W/m² | - |
* Rain latest hour (hover to see other rain measurements)
** Current wind speed in m/s (hover to see current wind gust speed)